[[{"header":{"parameterUnit":"m.s-1","parameterCategory":1,"la1":30.2991,"la2":30.254,"lo1":-89.0895,"lo2":-89.0444,"dy":0.0017,"dx":0.0017,"nx":28,"ny":28,"refTime":"2024-06-26T21:00:00:Z","depth":0,"parameterNumber":2,"parameterNumberName":"U-component_of_WINDS"},"data":[0,0,0,0,0,0,0,0,0,0,0,0,0,0,0,0,0,0,0,0,0,0,0,0,0,0,0,0,0,0,0,0,0,0,0,0,0,0,0,0,0,0,0,0,0,0,0,0,0,0,0,0,0,0,0,0,0,0,3.095,3.0951,0,3.1028,3.1029,3.103,3.099,3.0988,3.0986,3.0984,3.1077,3.1081,3.1085,0,0,0,0,0,0,0,0,0,0,0,0,0,3.0779,3.0782,3.095,3.0951,3.0952,3.1028,3.1029,3.103,3.099,3.0988,3.0985,3.0983,3.1075,3.1081,3.1086,0,0,0,0,0,0,0,0,0,0,0,0,0,3.0855,3.0783,3.095,3.0941,3.0941,3.1028,3.1029,3.1031,3.0991,3.0988,3.0985,3.0982,3.1074,3.108,3.1087,3.1191,0,0,3.1107,3.111,0,0,0,0,0,0,0,0,3.0851,3.0862,3.0941,3.0942,3.0942,3.0996,3.1003,3.1085,3.0992,3.0972,3.0984,3.098,3.1053,3.1061,3.1083,3.1195,3.1199,3.1108,3.1112,3.1114,3.1116,0,0,0,0,0,0,0,3.0846,3.0858,3.0981,3.0942,3.0943,3.0937,3.0945,3.1018,3.103,3.0974,3.0971,3.098,3.1053,3.1077,3.1085,3.12,3.1107,3.1113,3.1117,3.112,3.1405,3.1408,0,0,0,0,0,0,3.0839,3.0854,3.0979,3.0984,3.0887,3.0943,3.0951,3.0982,3.1029,3.1033,3.0983,3.0978,3.1067,3.1078,3.1088,3.1215,3.1114,3.1121,3.1124,3.1402,3.1406,3.141,0,0,0,0,0,0,3.0836,3.0851,3.0976,3.0918,3.0933,3.0949,3.0984,3.0985,3.1009,3.1035,3.1039,3.1004,3.1065,3.1079,3.1165,3.1217,3.1124,3.113,3.1397,3.1403,3.1408,3.1467,0,0,0,0,0,0,3.0831,3.085,3.0886,3.0919,3.0936,3.1047,3.0987,3.0989,3.1019,3.1014,3.1057,3.1061,3.1064,3.1156,3.1172,3.1225,3.1135,3.1393,3.14,3.1406,3.1461,3.1474,3.1485,0,0,0,0,0,3.0825,3.0902,3.0888,3.0903,3.0982,3.105,3.1061,3.1058,3.1023,3.1062,3.108,3.106,3.1209,3.1165,3.1183,3.1238,3.1389,3.1398,3.1406,3.1455,3.1471,3.1485,0,0,0,0,0,0,3.0878,3.0906,3.0891,3.098,3.1012,3.1043,3.1092,3.1076,3.1122,3.1115,3.1115,3.1126,3.1215,3.1236,3.1186,3.1343,3.1294,3.1307,3.1326,3.1342,3.1354,3.1347,3.114,0,0,0,0,0,3.0899,3.0949,3.0972,3.1049,3.1065,3.1076,3.1106,3.1101,3.1137,3.1152,3.1175,3.1214,3.127,3.1307,3.136,3.1464,3.1475,3.1512,3.1524,3.1534,3.1544,3.1603,3.1621,3.1436,3.1436,3.1436,0,0,3.0946,3.0967,3.0998,3.106,3.1084,3.1139,3.1088,3.1148,3.119,3.1162,3.1244,3.1263,3.1307,3.1403,3.1447,3.1423,3.1598,3.1544,3.1552,3.1557,3.1613,3.1631,3.1646,3.1442,3.1441,3.144,0,0,3.1057,3.1077,3.1143,3.1169,3.1206,3.1213,3.1229,3.1263,3.1273,3.1354,3.1335,3.1388,3.1484,3.1516,3.1545,3.1672,3.1656,3.169,3.1754,3.1811,3.1826,3.1839,3.1885,3.1902,3.17,3.17,3.17,0,3.1111,3.1188,3.1181,3.1242,3.1271,3.1245,3.1315,3.1342,3.1396,3.1419,3.1391,3.1511,3.1539,3.1643,3.1673,3.1698,3.1719,3.1684,3.1823,3.1836,3.1849,3.1893,3.1911,3.1704,3.1704,3.1703,3.1703,0,3.1253,3.1308,3.1358,3.1406,3.1442,3.1507,3.1514,3.1551,3.1545,3.1556,3.1642,3.1674,3.1734,3.1759,3.1754,3.1863,3.1848,3.1822,3.1773,3.187,3.1912,3.1929,3.171,3.1708,3.1707,3.1706,0,0,3.1399,3.1443,3.1462,3.1484,3.1524,3.1569,3.1636,3.169,3.1723,3.1763,3.182,3.1903,3.1879,3.1913,3.1912,3.1963,3.2063,3.1931,3.1932,3.1955,3.2188,3.2207,3.2226,3.2053,3.2056,3.2059,3.2184,0,3.1514,3.1624,3.1621,3.1726,3.1779,3.1756,3.1815,3.1848,3.1862,3.1912,3.1928,3.1986,3.195,3.1971,3.2019,3.204,3.211,3.2031,3.2111,3.2113,3.2099,3.2248,3.2268,3.2385,3.2201,3.2203,3.2205,0,3.1662,3.1702,3.1811,3.1845,3.1867,3.1919,3.197,3.2016,3.2056,3.2063,3.21,3.2092,3.2165,3.2114,3.2216,3.2162,3.2195,3.2211,3.2216,3.2223,3.2165,3.2261,3.2422,3.244,3.2231,3.2229,3.2227,0,3.1758,3.1841,3.1917,3.1937,3.1978,3.2016,3.2035,3.2071,3.2105,3.2151,3.2174,3.223,3.2261,3.2307,3.2316,3.2278,3.242,3.2369,3.243,3.243,3.246,3.2458,3.263,3.2482,3.2481,3.2481,3.2481,0,3.1887,3.1955,3.1961,3.2008,3.2085,3.2083,3.2161,3.2178,3.2211,3.2264,3.225,3.2302,3.2311,3.2366,3.2375,3.2459,3.2474,3.2484,3.2485,3.2485,3.2484,3.2506,3.2499,3.2486,3.2485,3.2484,3.2483,0,3.2007,3.2013,3.2095,3.2127,3.2137,3.2193,3.2222,3.2269,3.2281,3.2349,3.2366,3.2386,3.2451,3.2464,3.2542,3.2548,3.2648,3.2642,3.2633,3.2633,3.2694,3.2688,3.2886,3.2913,3.2746,3.2748,3.2749,0,3.2088,3.214,3.2177,3.2209,3.223,3.2283,3.2316,3.2318,3.2355,3.2405,3.2447,3.2509,3.2558,3.2663,3.2688,3.2748,3.2743,3.2809,3.2752,3.2751,3.2745,3.2742,3.2748,3.2819,3.2821,3.2823,3.2824,0,3.2233,3.2233,3.228,3.2329,3.2368,3.2408,3.2445,3.2474,3.2482,3.2525,3.2587,3.2626,3.2703,3.2766,3.2827,3.2852,3.2841,3.2841,3.2859,3.2859,3.2852,3.2857,3.2663,3.2837,3.2835,3.2835,3.2834,3.2833,3.2337,3.2382,3.2414,3.2468,3.2496,3.2532,3.2577,3.2595,3.2646,3.2706,3.2706,3.2776,3.2818,3.2897,3.2926,3.2984,3.2964,3.2989,3.2996,3.3002,3.3008,3.2842,3.2995,3.2995,3.2995,3.2994,3.2994,0,3.2481,3.2501,3.2549,3.2601,3.2644,3.2625,3.2667,3.2706,3.2766,3.2804,3.2852,3.2926,3.2988,3.3018,3.3079,3.3121,3.3117,3.3137,3.3134,3.3141,3.3022,3.3,3.3139,3.3139,3.3139,3.3139,3.3138,3.3138,3.2561,3.2636,3.2641,3.2733,3.2754,3.2818,3.2844,3.2879,3.2909,3.2991,3.304,3.3058,3.3094,3.3158,3.3216,3.3223,3.3248,3.327,3.3276,3.3164,3.3149,3.3135,3.3115,3.3275,3.3275,3.339,3.3391,3.3392]},{"header":{"parameterUnit":"m.s-1","parameterCategory":1,"la1":30.2991,"la2":30.254,"lo1":-89.0895,"lo2":-89.0444,"dy":0.0017,"dx":0.0017,"nx":28,"ny":28,"refTime":"2024-06-26T21:00:00:Z","depth":0,"parameterNumber":3,"parameterNumberName":"V-component_of_WINDS"},"data":[0,0,0,0,0,0,0,0,0,0,0,0,0,0,0,0,0,0,0,0,0,0,0,0,0,0,0,0,0,0,0,0,0,0,0,0,0,0,0,0,0,0,0,0,0,0,0,0,0,0,0,0,0,0,0,0,0,0,2.2004,2.2004,0,2.2027,2.2027,2.2027,2.2064,2.2065,2.2066,2.2066,2.2086,2.2086,2.2086,0,0,0,0,0,0,0,0,0,0,0,0,0,2.1987,2.1987,2.2004,2.2004,2.2004,2.2027,2.2027,2.2027,2.2064,2.2065,2.2066,2.2067,2.2086,2.2086,2.2086,0,0,0,0,0,0,0,0,0,0,0,0,0,2.2,2.1987,2.2004,2.2025,2.2028,2.2027,2.2027,2.2028,2.2064,2.2065,2.2066,2.2067,2.2086,2.2086,2.2086,2.2064,0,0,2.2085,2.2085,0,0,0,0,0,0,0,0,2.2,2.2001,2.2022,2.2024,2.2026,2.2044,2.2029,2.204,2.2064,2.205,2.2066,2.2067,2.2071,2.2072,2.2074,2.2065,2.2066,2.2085,2.2085,2.2085,2.2085,0,0,0,0,0,0,0,2.1999,2.2,2.2013,2.2022,2.2025,2.2032,2.2036,2.2031,2.2054,2.2051,2.2054,2.2056,2.2072,2.2074,2.2075,2.2067,2.2085,2.2085,2.2085,2.2085,2.2038,2.2037,0,0,0,0,0,0,2.1995,2.1999,2.2012,2.2014,2.2015,2.2032,2.2035,2.2037,2.2055,2.2058,2.2056,2.2058,2.2074,2.2075,2.2076,2.2049,2.2085,2.2085,2.2085,2.2039,2.2038,2.2037,0,0,0,0,0,0,2.1995,2.1996,2.2011,2.2007,2.201,2.2031,2.2033,2.2037,2.2039,2.2058,2.2062,2.2053,2.2075,2.2076,2.2067,2.2051,2.2085,2.2085,2.2041,2.2039,2.2037,2.1998,0,0,0,0,0,0,2.1994,2.1995,2.1989,2.2007,2.201,2.2003,2.2032,2.2037,2.2039,2.2042,2.2057,2.206,2.2076,2.2067,2.2066,2.2051,2.2085,2.2042,2.204,2.2038,2.2001,2.1995,2.199,0,0,0,0,0,2.1993,2.1977,2.1988,2.199,2.2002,2.2002,2.2004,2.2023,2.2038,2.203,2.2042,2.206,2.2053,2.2065,2.2065,2.205,2.2043,2.204,2.2038,2.2003,2.1996,2.199,0,0,0,0,0,0,2.1955,2.1979,2.1993,2.1982,2.199,2.2008,2.1999,2.2015,2.2019,2.2021,2.2044,2.2047,2.2034,2.2041,2.2055,2.2028,2.2051,2.2048,2.2024,2.2017,2.2012,2.201,2.2085,0,0,0,0,0,2.1946,2.1945,2.1966,2.1954,2.1958,2.1978,2.1979,2.1993,2.2001,2.2004,2.2016,2.2022,2.2021,2.202,2.2021,2.2002,2.2004,2.1991,2.1986,2.1982,2.1978,2.1966,2.196,2.2028,2.2028,2.2028,0,0,2.1926,2.1939,2.1937,2.1947,2.1955,2.1951,2.198,2.1977,2.1974,2.2004,2.1995,2.2003,2.2012,2.1997,2.1991,2.2003,2.196,2.1979,2.1975,2.1974,2.1963,2.1956,2.195,2.2026,2.2027,2.2027,0,0,2.1888,2.1899,2.1889,2.1896,2.1908,2.1921,2.1919,2.1935,2.1941,2.1934,2.1955,2.1952,2.195,2.1955,2.1957,2.1918,2.1934,2.1918,2.189,2.1877,2.1872,2.1867,2.1851,2.1845,2.1915,2.1915,2.1915,0,2.1861,2.1859,2.1882,2.1876,2.1878,2.1906,2.1895,2.19,2.1911,2.1911,2.1924,2.1922,2.193,2.1915,2.1905,2.1907,2.1903,2.1915,2.1871,2.1867,2.1863,2.1847,2.1841,2.1913,2.1913,2.1913,2.1913,0,2.1824,2.1822,2.1812,2.1822,2.1823,2.1815,2.1834,2.1833,2.1847,2.1858,2.1848,2.1859,2.186,2.1858,2.1872,2.1844,2.1851,2.1868,2.189,2.1853,2.1839,2.1833,2.191,2.191,2.1911,2.1912,0,0,2.1762,2.1784,2.178,2.1783,2.1798,2.1795,2.1787,2.179,2.1787,2.1793,2.1785,2.1782,2.1797,2.1799,2.1813,2.1803,2.1768,2.1821,2.1821,2.1808,2.1735,2.172,2.1713,2.1779,2.1778,2.1778,2.1733,0,2.1724,2.1712,2.1732,2.1714,2.1711,2.1737,2.1729,2.1736,2.1746,2.1743,2.1754,2.1751,2.1772,2.1773,2.1764,2.1774,2.1753,2.1778,2.1769,2.1768,2.1763,2.1706,2.1691,2.1649,2.1728,2.1727,2.1727,0,2.1679,2.1682,2.1665,2.1678,2.1678,2.1671,2.1673,2.1671,2.1678,2.1686,2.1688,2.1705,2.1695,2.1718,2.1704,2.172,2.1718,2.1722,2.1721,2.1718,2.1743,2.1699,2.1636,2.1629,2.1718,2.1719,2.172,0,2.1631,2.1632,2.1621,2.1624,2.164,2.1634,2.164,2.1649,2.1648,2.165,2.165,2.165,2.165,2.1649,2.1664,2.168,2.1646,2.1672,2.165,2.1649,2.164,2.164,2.1572,2.1643,2.1643,2.1643,2.1643,0,2.1585,2.1573,2.16,2.1593,2.1578,2.1601,2.1585,2.1594,2.1601,2.1594,2.1617,2.161,2.1632,2.1627,2.1639,2.1623,2.1624,2.1628,2.163,2.1624,2.1623,2.1621,2.1623,2.1642,2.1642,2.1642,2.1643,0,2.1529,2.1547,2.1536,2.1552,2.1556,2.1544,2.1557,2.155,2.1562,2.1553,2.1552,2.1569,2.1564,2.158,2.1577,2.1585,2.1561,2.157,2.1558,2.156,2.1536,2.1537,2.1463,2.1453,2.1532,2.1532,2.1531,0,2.1498,2.1488,2.1503,2.1501,2.1506,2.1502,2.1502,2.1523,2.1521,2.1527,2.1519,2.1515,2.1514,2.1503,2.1514,2.1512,2.1519,2.1493,2.1518,2.1511,2.1514,2.1514,2.1511,2.1487,2.1486,2.1485,2.1484,0,2.1438,2.1447,2.1447,2.1448,2.1447,2.1449,2.1452,2.1449,2.1471,2.1467,2.1462,2.1461,2.1458,2.1453,2.1452,2.1457,2.1473,2.1477,2.1471,2.1463,2.1455,2.1455,2.1541,2.1478,2.1478,2.1479,2.1479,2.1479,2.1391,2.1383,2.1392,2.1389,2.1394,2.1397,2.139,2.1401,2.1397,2.1397,2.1409,2.1401,2.1406,2.1407,2.141,2.1402,2.1413,2.1406,2.1403,2.14,2.1395,2.1459,2.1402,2.1403,2.1403,2.1403,2.1403,0,2.133,2.1337,2.1335,2.1339,2.1336,2.1354,2.1358,2.1354,2.1347,2.1351,2.1349,2.1341,2.1337,2.1347,2.1343,2.1335,2.1342,2.1333,2.1332,2.1332,2.1387,2.139,2.1327,2.1327,2.1327,2.1327,2.1327,2.1327,2.1298,2.1285,2.1294,2.1282,2.1289,2.1282,2.1282,2.1283,2.1287,2.1278,2.1274,2.1282,2.1288,2.1284,2.128,2.1283,2.1279,2.1266,2.1271,2.1321,2.1329,2.1336,2.1339,2.1266,2.1266,2.1217,2.1216,2.1216]}]]